This is the latest recevied weather packets stored in our database for station/object R2BLN-13. If no packets are shown the sender has not sent any weather packets the latest 10 day(s).
| Time | Temp. | Humidity | Pressure | Rain* | Wind** | Luminosity | Snow |
|---|---|---|---|---|---|---|---|
| 1788014620 | 20° C | 54% | 998.7 hPa | - | - | - | - |
| 1788014005 | 20.56° C | 52% | 998.8 hPa | - | - | - | - |
| 1788013405 | 21.11° C | 50% | 998.8 hPa | - | - | - | - |
| 1788012805 | 21.67° C | 50% | 998.9 hPa | - | - | - | - |
| 1788012205 | 21.67° C | 50% | 999 hPa | - | - | - | - |
| 1788011605 | 22.22° C | 50% | 998.9 hPa | - | - | - | - |
| 1788011005 | 22.22° C | 50% | 999 hPa | - | - | - | - |
| 1788010405 | 22.78° C | 51% | 999.1 hPa | - | - | - | - |
| 1788009805 | 22.78° C | 49% | 999.1 hPa | - | - | - | - |
| 1788009205 | 23.33° C | 50% | 999.1 hPa | - | - | - | - |
| 1788008605 | 23.33° C | 51% | 999.2 hPa | - | - | - | - |
| 1788008005 | 22.78° C | 48% | 999.2 hPa | - | - | - | - |
| 1788007405 | 22.78° C | 47% | 999.3 hPa | - | - | - | - |
| 1788006805 | 23.89° C | 46% | 999.4 hPa | - | - | - | - |
| 1788006205 | 23.89° C | 43% | 999.5 hPa | - | - | - | - |
| 1788005605 | 24.44° C | 46% | 999.7 hPa | - | - | - | - |
| 1788004988 | 24.44° C | 46% | 999.8 hPa | - | - | - | - |
| 1788004375 | 25° C | 44% | 999.8 hPa | - | - | - | - |
| 1788003775 | 26.11° C | 42% | 999.9 hPa | - | - | - | - |
| 1788003175 | 26.67° C | 38% | 1000 hPa | - | - | - | - |
| 1788002575 | 26.67° C | 43% | 1000.1 hPa | - | - | - | - |
| 1788001975 | 26.67° C | 40% | 1000.2 hPa | - | - | - | - |
| 1788001375 | 26.67° C | 38% | 1000.2 hPa | - | - | - | - |
| 1788000775 | 26.67° C | 41% | 1000.3 hPa | - | - | - | - |
| 1788000175 | 26.67° C | 40% | 1000.4 hPa | - | - | - | - |
* Rain since midnight (hover to see other rain measurements)
** Current wind speed in m/s (hover to see current wind gust speed)